STARLINK-5694 (55481 NORAD) Tracking and Keplerian Element Data

This shows tracking and keplerian element data for the satellite.

Feedback or suggestion? Click here.




ElementValue
Catalog55481
NameSTARLINK-5694
Epoch Orbit822
Epoch Day85.25001157
Epoch Year2023
RAAN84.7343
Inclination43.0004
Eccentricity0.0001687
Argument of Perigee280.5485
Mean Anonmoly84.482
Mean Motion15.04543792
Decay Rate-0.00097045
L11 55481U 23015AJ 23085.25001157 -.00097045 00000+0 -68889-2 0 9990
L22 55481 43.0004 84.7343 0001687 280.5485 84.4820 15.04543792 8227



Live tracking and technical data element details for STARLINK-5694 (NORAD 55481). STARLINK-5694 can be tracked NOW for your location showing map with azimuth and elevation plus other details from your city location.







IsCatalogInMostPopularTable: catalog: 55481, numindb: -1

Insert: records affected: 1


GetName: 55481 STARLINK-5694

Hit Count: inserted at: Tue, 28 Mar 2023 02:42:53 GMT